This demonstration page uses our WeatherBlox Daily Observations layout. Learn more.

Left ArrowRight Arrow

30.21309, -93.2044

Hourly Observations for January 5, 2022

Temp ( °F °C ) Dew Point ( °F °C ) Humidity (%) Winds ( mph kmh ) Pressure ( in mb ) Visibility ( mi km ) Precip ( " mm )
12:15 am 00:15 Cloudy 55 13 51 10.7 86 86 S 5 7 30.04 1017 10 16 0.00 0.00
12:35 am 00:35 Cloudy 55 12.9 51 10.6 86 86 S 5 7 30.03 1017 10 16 0.00 0.00
12:55 am 00:55 Cloudy 55 12.8 51 10.7 87 87 S 3 6 30.03 1017 10 16 0.00 0.00
1:15 am 01:15 Cloudy 55 12.6 51 10.6 88 88 SSE 5 7 30.03 1017 10 16 0.00 0.00
1:35 am 01:35 Cloudy 54 12 51 10.3 89 89 SSE 7 11 30.03 1017 10 16 0.00 0.00
1:55 am 01:55 Cloudy 53 11.9 50 10.2 89 89 SE 6 9 30.03 1017 10 16 0.00 0.00
2:15 am 02:15 Cloudy 54 12.1 51 10.6 91 91 Calm 30.03 1017 10 16 0.00 0.00
2:35 am 02:35 Mostly Cloudy 54 12.1 51 10.4 89 89 Calm 30.03 1017 10 16 0.00 0.00
2:55 am 02:55 Partly Cloudy 52 11.3 49 9.7 90 90 ESE 3 6 30.02 1017 10 16 0.00 0.00
3:15 am 03:15 Partly Cloudy 50 10.1 48 9.1 94 94 ESE 6 9 30.02 1017 10 16 0.00 0.00
3:35 am 03:35 Mostly Cloudy 51 10.4 49 9.4 94 94 ESE 7 11 30.01 1016 10 16 0.00 0.00
3:55 am 03:55 Mostly Cloudy 52 11 49 9.7 92 92 E 5 7 30.01 1016 10 16 0.00 0.00
4:15 am 04:15 Partly Cloudy 51 10.4 49 9.2 92 92 E 5 7 30.00 1016 10 16 0.00 0.00
4:35 am 04:35 Partly Cloudy 51 10.5 49 9.5 94 94 E 5 7 30.00 1016 10 16 0.00 0.00
4:55 am 04:55 Mostly Cloudy 50 9.8 48 8.8 94 94 E 5 7 30.00 1016 10 16 0.00 0.00
5:15 am 05:15 Partly Cloudy 50 9.8 48 8.9 94 94 NE 3 6 30.00 1016 10 16 0.00 0.00
5:35 am 05:35 Partly Cloudy 50 9.9 48 8.9 94 94 E 6 9 29.99 1016 10 16 0.00 0.00
6:00 am 06:00 Partly Cloudy 48 9 46 8 94 94 Calm 29.99 1016 10 16 0.00 0.00
6:45 am 06:45 Mostly Cloudy 48 9 48 9 100 100 Calm 30.00 1016 10 16 0.00 0.00
7:45 am 07:45 Partly Cloudy 54 12 50 10 88 88 Calm 30.00 1016 10 16 0.00 0.00
8:45 am 08:45 Cloudy 54 12 52 11 94 94 Calm 30.01 1016 10 16 0.00 0.00
9:45 am 09:45 Mostly Cloudy 61 16 55 13 83 83 SE 7 11 30.02 1017 10 16 0.00 0.00
10:45 am 10:45 Cloudy 61 16 55 13 83 83 Calm 30.02 1017 10 16 0.00 0.00
11:55 am 11:55 Mostly Cloudy 64 18 57 14 78 78 Calm 29.99 1016 10 16 0.00 0.00
12:50 pm 12:50 Mostly Cloudy 70 21 59 15 69 69 SSE 10 17 29.96 1015 10 16 0.00 0.00
1:53 pm 13:53 Mostly Cloudy 70 21 57 14 64 64 S 7 11 29.93 1014 10 16 0.00 0.00
3:55 pm 15:55 Mostly Cloudy 70 21 57 14 64 64 S 12 19 29.90 1013 10 16 0.00 0.00
4:45 pm 16:45 Partly Cloudy 70 21 55 13 60 60 S 12 19 29.90 1013 10 16 0.00 0.00
5:45 pm 17:45 Mostly Clear 61 16 54 12 77 77 SSE 8 13 29.91 1013 10 16 0.00 0.00
6:51 pm 18:51 Mostly Cloudy 63 17 57 14 83 83 SSE 8 13 29.92 1013 10 16 0.00 0.00
7:50 pm 19:50 Mostly Cloudy 61 16 57 14 88 88 SE 6 9 29.93 1014 10 16 0.00 0.00
8:52 pm 20:52 Mostly Clear 57 14 55 13 94 94 SSE 6 9 29.92 1013 10 16 0.00 0.00
9:55 pm 21:55 Mostly Clear 57 14 55 13 94 94 SSE 8 13 29.92 1013 10 16 0.00 0.00
10:15 pm 22:15 Mostly Cloudy with Mist and Fog 57 14 55 12.9 93 93 SSE 7 11 29.91 1013 2 2 0.00 0.00
10:35 pm 22:35 Partly Cloudy with Mist and Fog 57 13.8 55 12.9 94 94 SSE 8 13 29.91 1013 2 3 0.00 0.00
10:55 pm 22:55 Partly Cloudy with Mist and Fog 57 14.1 56 13.2 94 94 SSE 8 13 29.91 1013 2 3 0.00 0.00
11:15 pm 23:15 Partly Cloudy 58 14.3 56 13.4 94 94 SSE 9 15 29.90 1013 10 16 0.00 0.00
11:35 pm 23:35 Partly Cloudy 58 14.4 56 13.5 94 94 SSE 8 13 29.90 1013 10 16 0.00 0.00
11:55 pm 23:55 Partly Cloudy 58 14.6 56 13.6 94 94 SSE 7 11 29.90 1013 10 16 0.00 0.00

Powered by AerisWeather